Terminal Aerodrome Forecast
Issued by NWS Kansas City/Pleasant Hill, MO

Home | Current Version | Previous Version | Text Only | Print | Product List | Glossary On
Versions: 1 2 3 4 5 6 7 8 9 10 11 12 13 14 15 16 17 18 19 20 21 22 23 24
000
FTUS43 KEAX 191600 AAB
TAFMCI
TAF AMD
KMCI 191606Z 1916/2012 17008KT 5SM BR OVC004
     FM191800 17008KT P6SM OVC007
     FM192000 17011KT P6SM OVC015
     FM192200 17010KT P6SM SCT025=

USA.gov is the U.S. government's official web portal to all federal, state and local government web resources and services.